Time,TemperatureF,DewpointF,PressureIn,WindDirection,WindDirectionDegrees,WindSpeedMPH,WindSpeedGustMPH,Humidity,HourlyPrecipIn,Conditions,Clouds,dailyrainin,SolarRadiationWatts/m^2,SoftwareType,DateUTC
2013-12-04 00:02:00,28.0,27.0,-100.00,East,101,2.0,3.0,96,0.00,,,0.00,0.000000,,2013-12-04 07:02:00,
2013-12-04 00:12:00,28.0,27.0,-100.00,East,101,2.0,3.0,96,0.00,,,0.00,0.000000,,2013-12-04 07:12:00,
2013-12-04 00:21:00,28.0,27.0,-100.00,East,101,2.0,3.0,96,0.00,,,0.00,0.000000,,2013-12-04 07:21:00,
2013-12-04 00:52:00,29.0,26.0,-100.00,SE,124,2.0,3.0,87,0.00,,,0.00,0.000000,,2013-12-04 07:52:00,
2013-12-04 01:02:00,29.0,26.0,-100.00,SE,124,2.0,3.0,87,0.00,,,0.00,0.000000,,2013-12-04 08:02:00,
2013-12-04 01:11:00,29.0,26.0,-100.00,SE,124,2.0,3.0,87,0.00,,,0.00,0.000000,,2013-12-04 08:11:00,
2013-12-04 01:21:00,29.0,26.0,-100.00,SE,124,2.0,3.0,87,0.00,,,0.00,0.000000,,2013-12-04 08:21:00,
2013-12-04 01:22:00,31.0,22.0,-100.00,South,175,5.0,7.0,68,0.00,,,0.00,0.000000,,2013-12-04 08:22:00,
2013-12-04 01:52:00,31.0,22.0,-100.00,South,175,5.0,7.0,68,0.00,,,0.00,0.000000,,2013-12-04 08:52:00,
2013-12-04 02:02:00,31.0,22.0,-100.00,South,175,5.0,7.0,68,0.00,,,0.00,0.000000,,2013-12-04 09:02:00,
2013-12-04 02:11:00,31.0,22.0,-100.00,South,175,5.0,7.0,68,0.00,,,0.00,0.000000,,2013-12-04 09:11:00,
2013-12-04 02:22:00,32.0,21.0,-100.00,SW,219,5.0,8.0,64,0.00,,,0.00,0.000000,,2013-12-04 09:22:00,
2013-12-04 02:53:00,32.0,21.0,-100.00,SW,219,5.0,8.0,64,0.00,,,0.00,0.000000,,2013-12-04 09:53:00,
2013-12-04 03:03:00,32.0,21.0,-100.00,SW,219,5.0,8.0,64,0.00,,,0.00,0.000000,,2013-12-04 10:03:00,
2013-12-04 03:12:00,32.0,21.0,-100.00,SW,219,5.0,8.0,64,0.00,,,0.00,0.000000,,2013-12-04 10:12:00,
2013-12-04 03:22:00,34.0,19.0,-100.00,SW,236,12.0,18.0,54,0.00,,,0.00,0.000000,,2013-12-04 10:22:00,
2013-12-04 03:53:00,34.0,19.0,-100.00,SW,236,12.0,18.0,54,0.00,,,0.00,0.000000,,2013-12-04 10:53:00,
2013-12-04 04:02:00,34.0,19.0,-100.00,SW,236,12.0,18.0,54,0.00,,,0.00,0.000000,,2013-12-04 11:02:00,
2013-12-04 04:12:00,34.0,19.0,-100.00,SW,236,12.0,18.0,54,0.00,,,0.00,0.000000,,2013-12-04 11:12:00,
2013-12-04 04:22:00,28.0,28.0,-100.00,West,280,3.0,16.0,98,0.00,,,0.00,0.000000,,2013-12-04 11:22:00,
2013-12-04 04:53:00,28.0,28.0,-100.00,West,280,3.0,16.0,98,0.00,,,0.00,0.000000,,2013-12-04 11:53:00,
2013-12-04 05:02:00,28.0,28.0,-100.00,West,280,3.0,16.0,98,0.00,,,0.00,0.000000,,2013-12-04 12:02:00,
2013-12-04 05:12:00,28.0,28.0,-100.00,West,280,3.0,16.0,98,0.00,,,0.00,0.000000,,2013-12-04 12:12:00,
2013-12-04 05:22:00,28.0,25.0,-100.00,West,281,4.0,9.0,87,0.00,,,0.00,0.000000,,2013-12-04 12:22:00,
2013-12-04 05:52:00,28.0,25.0,-100.00,West,281,4.0,9.0,87,0.00,,,0.00,0.000000,,2013-12-04 12:52:00,
2013-12-04 06:02:00,28.0,25.0,-100.00,West,281,4.0,9.0,87,0.00,,,0.00,0.000000,,2013-12-04 13:02:00,
2013-12-04 06:11:00,28.0,25.0,-100.00,West,281,4.0,9.0,87,0.00,,,0.00,0.000000,,2013-12-04 13:11:00,
2013-12-04 06:52:00,29.0,25.0,-100.00,SW,236,2.0,6.0,84,0.00,,,-99.99,0.000000,,2013-12-04 13:52:00,
2013-12-04 07:02:00,29.0,25.0,-100.00,SW,236,2.0,6.0,84,0.00,,,-99.99,0.000000,,2013-12-04 14:02:00,
2013-12-04 07:12:00,29.0,25.0,-100.00,SW,236,2.0,6.0,84,0.00,,,-99.99,0.000000,,2013-12-04 14:12:00,
2013-12-04 07:21:00,29.0,25.0,-100.00,SW,236,2.0,6.0,84,0.00,,,-99.99,0.000000,,2013-12-04 14:21:00,
2013-12-04 07:22:00,30.0,22.0,-100.00,South,178,4.0,9.0,71,0.00,,,0.00,1.000000,,2013-12-04 14:22:00,
2013-12-04 07:52:00,30.0,22.0,-100.00,South,178,4.0,9.0,71,0.00,,,0.00,1.000000,,2013-12-04 14:52:00,
2013-12-04 08:02:00,30.0,22.0,-100.00,South,178,4.0,9.0,71,0.00,,,0.00,1.000000,,2013-12-04 15:02:00,
2013-12-04 08:12:00,30.0,22.0,-100.00,South,178,4.0,9.0,71,0.00,,,0.00,1.000000,,2013-12-04 15:12:00,
2013-12-04 08:22:00,19.0,17.0,-100.00,WNW,286,6.0,18.0,91,0.00,,,0.00,29.000000,,2013-12-04 15:22:00,
2013-12-04 09:22:00,18.0,16.0,-100.00,WNW,283,7.0,16.0,92,0.00,,,0.00,55.000000,,2013-12-04 16:22:00,
2013-12-04 09:53:00,18.0,16.0,-100.00,WNW,283,7.0,16.0,92,0.00,,,0.00,55.000000,,2013-12-04 16:53:00,
2013-12-04 10:04:00,18.0,16.0,-100.00,WNW,283,7.0,16.0,92,0.00,,,0.00,55.000000,,2013-12-04 17:04:00,
2013-12-04 10:12:00,18.0,16.0,-100.00,WNW,283,7.0,16.0,92,0.00,,,0.00,55.000000,,2013-12-04 17:12:00,
2013-12-04 10:22:00,17.0,15.0,-100.00,WNW,282,6.0,11.0,93,0.00,,,0.00,91.000000,,2013-12-04 17:22:00,
2013-12-04 10:53:00,17.0,15.0,-100.00,WNW,282,6.0,11.0,93,0.00,,,0.00,91.000000,,2013-12-04 17:53:00,
2013-12-04 11:02:00,17.0,15.0,-100.00,WNW,282,6.0,11.0,93,0.00,,,0.00,91.000000,,2013-12-04 18:02:00,
2013-12-04 11:12:00,17.0,15.0,-100.00,WNW,282,6.0,11.0,93,0.00,,,0.00,91.000000,,2013-12-04 18:12:00,
2013-12-04 11:52:00,19.0,17.0,-100.00,West,278,3.0,8.0,92,0.00,,,0.00,186.000000,,2013-12-04 18:52:00,
2013-12-04 12:02:00,19.0,17.0,-100.00,West,278,3.0,8.0,92,0.00,,,0.00,186.000000,,2013-12-04 19:02:00,
2013-12-04 12:11:00,19.0,17.0,-100.00,West,278,3.0,8.0,92,0.00,,,0.00,186.000000,,2013-12-04 19:11:00,
2013-12-04 12:21:00,19.0,17.0,-100.00,West,278,3.0,8.0,92,0.00,,,0.00,186.000000,,2013-12-04 19:21:00,
2013-12-04 12:22:00,22.0,19.0,-100.00,NW,312,2.0,4.0,89,0.00,,,0.00,284.000000,,2013-12-04 19:22:00,
2013-12-04 12:52:00,22.0,19.0,-100.00,NW,312,2.0,4.0,89,0.00,,,0.00,284.000000,,2013-12-04 19:52:00,
2013-12-04 13:02:00,22.0,19.0,-100.00,NW,312,2.0,4.0,89,0.00,,,0.00,284.000000,,2013-12-04 20:02:00,
2013-12-04 13:12:00,22.0,19.0,-100.00,NW,312,2.0,4.0,89,0.00,,,0.00,284.000000,,2013-12-04 20:12:00,
2013-12-04 13:22:00,22.0,19.0,-100.00,NNW,335,2.0,4.0,89,0.00,,,0.00,176.000000,,2013-12-04 20:22:00,
2013-12-04 13:52:00,22.0,19.0,-100.00,NNW,335,2.0,4.0,89,0.00,,,0.00,176.000000,,2013-12-04 20:52:00,
2013-12-04 14:02:00,22.0,19.0,-100.00,NNW,335,2.0,4.0,89,0.00,,,0.00,176.000000,,2013-12-04 21:02:00,
2013-12-04 14:11:00,22.0,19.0,-100.00,NNW,335,2.0,4.0,89,0.00,,,0.00,176.000000,,2013-12-04 21:11:00,
2013-12-04 14:22:00,19.0,17.0,-100.00,WNW,293,4.0,7.0,90,0.00,,,0.00,113.000000,,2013-12-04 21:22:00,
2013-12-04 14:54:00,19.0,17.0,-100.00,WNW,293,4.0,7.0,90,0.00,,,0.00,113.000000,,2013-12-04 21:54:00,
2013-12-04 15:04:00,19.0,17.0,-100.00,WNW,293,4.0,7.0,90,0.00,,,0.00,113.000000,,2013-12-04 22:04:00,
2013-12-04 15:14:00,19.0,17.0,-100.00,WNW,293,4.0,7.0,90,0.00,,,0.00,113.000000,,2013-12-04 22:14:00,
2013-12-04 15:22:00,16.0,14.0,-100.00,West,275,9.0,14.0,92,0.00,,,0.00,124.000000,,2013-12-04 22:22:00,
2013-12-04 15:53:00,16.0,14.0,-100.00,West,275,9.0,14.0,92,0.00,,,0.00,124.000000,,2013-12-04 22:53:00,
2013-12-04 16:02:00,16.0,14.0,-100.00,West,275,9.0,14.0,92,0.00,,,0.00,124.000000,,2013-12-04 23:02:00,
2013-12-04 16:12:00,16.0,14.0,-100.00,West,275,9.0,14.0,92,0.00,,,0.00,124.000000,,2013-12-04 23:12:00,
2013-12-04 16:22:00,13.0,11.0,-100.00,WSW,253,8.0,12.0,90,0.00,,,0.00,53.000000,,2013-12-04 23:22:00,
2013-12-04 16:53:00,13.0,11.0,-100.00,WSW,253,8.0,12.0,90,0.00,,,0.00,53.000000,,2013-12-04 23:53:00,
2013-12-04 17:02:00,13.0,11.0,-100.00,WSW,253,8.0,12.0,90,0.00,,,0.00,53.000000,,2013-12-05 00:02:00,
2013-12-04 17:11:00,13.0,11.0,-100.00,WSW,253,8.0,12.0,90,0.00,,,0.00,53.000000,,2013-12-05 00:11:00,
2013-12-04 17:52:00,11.0,7.0,-100.00,WSW,256,8.0,11.0,83,0.00,,,0.00,7.000000,,2013-12-05 00:52:00,
2013-12-04 18:01:00,11.0,7.0,-100.00,WSW,256,8.0,11.0,83,0.00,,,0.00,7.000000,,2013-12-05 01:01:00,
2013-12-04 18:11:00,11.0,7.0,-100.00,WSW,256,8.0,11.0,83,0.00,,,0.00,7.000000,,2013-12-05 01:11:00,
2013-12-04 18:21:00,11.0,7.0,-100.00,WSW,256,8.0,11.0,83,0.00,,,0.00,7.000000,,2013-12-05 01:21:00,
2013-12-04 18:22:00,8.0,3.0,-100.00,WSW,255,8.0,11.0,80,0.00,,,0.00,0.000000,,2013-12-05 01:22:00,
2013-12-04 18:52:00,8.0,3.0,-100.00,WSW,255,8.0,11.0,80,0.00,,,0.00,0.000000,,2013-12-05 01:52:00,
2013-12-04 19:02:00,8.0,3.0,-100.00,WSW,255,8.0,11.0,80,0.00,,,0.00,0.000000,,2013-12-05 02:02:00,
2013-12-04 19:11:00,8.0,3.0,-100.00,WSW,255,8.0,11.0,80,0.00,,,0.00,0.000000,,2013-12-05 02:11:00,
2013-12-04 20:12:00,8.0,1.0,-100.00,WSW,252,7.0,12.0,74,0.00,,,0.00,0.000000,,2013-12-05 03:12:00,
2013-12-04 20:21:00,8.0,1.0,-100.00,WSW,252,7.0,12.0,74,0.00,,,0.00,0.000000,,2013-12-05 03:21:00,
2013-12-04 20:22:00,5.0,1.0,-100.00,North,3,3.0,11.0,83,0.00,,,0.00,0.000000,,2013-12-05 03:22:00,
2013-12-04 20:54:00,5.0,1.0,-100.00,North,3,3.0,11.0,83,0.00,,,0.00,0.000000,,2013-12-05 03:54:00,
2013-12-04 21:04:00,5.0,1.0,-100.00,North,3,3.0,11.0,83,0.00,,,0.00,0.000000,,2013-12-05 04:04:00,
2013-12-04 21:13:00,5.0,1.0,-100.00,North,3,3.0,11.0,83,0.00,,,0.00,0.000000,,2013-12-05 04:13:00,
2013-12-04 21:22:00,3.0,0.0,-100.00,West,271,1.0,6.0,85,0.00,,,0.00,0.000000,,2013-12-05 04:22:00,
2013-12-04 21:53:00,3.0,0.0,-100.00,West,271,1.0,6.0,85,0.00,,,0.00,0.000000,,2013-12-05 04:53:00,
2013-12-04 22:02:00,3.0,0.0,-100.00,West,271,1.0,6.0,85,0.00,,,0.00,0.000000,,2013-12-05 05:02:00,
2013-12-04 22:13:00,3.0,0.0,-100.00,West,271,1.0,6.0,85,0.00,,,0.00,0.000000,,2013-12-05 05:13:00,
2013-12-04 22:22:00,0.0,-2.0,-100.00,SE,133,1.0,2.0,90,0.00,,,0.00,0.000000,,2013-12-05 05:22:00,
2013-12-04 22:53:00,0.0,-2.0,-100.00,SE,133,1.0,2.0,90,0.00,,,0.00,0.000000,,2013-12-05 05:53:00,
2013-12-04 23:03:00,0.0,-2.0,-100.00,SE,133,1.0,2.0,90,0.00,,,0.00,0.000000,,2013-12-05 06:03:00,
2013-12-04 23:12:00,0.0,-2.0,-100.00,SE,133,1.0,2.0,90,0.00,,,0.00,0.000000,,2013-12-05 06:12:00,
2013-12-04 23:52:00,-1.0,-4.0,-100.00,SSE,155,0.0,3.0,88,0.00,,,0.00,0.000000,,2013-12-05 06:52:00,